Retour au catalogue

BREEZE-M DEB

LostHEO
NORAD 32481·DEBRIS·🇷🇺 Russia

Lancé Feb 28, 2006 depuis Baikonur Cosmodrome

Loading…

Prochains Passages (prochaines 24 heures)

TLE

PériméSource: Space-Track

Époque: Nov 1, 2008, 20:00 UTC

1 32481U 06006AB  08306.83401400  .00025952  00000-0  14550+0 0  9994
2 32481  49.6432 139.6633 4844458 209.3447 110.4015  5.41444928 18153

Suivez BREEZE-M DEB en temps réel avec AllMySat

Download on the App Store